Starlink 33773

operational
NORAD ID: 63713 Int'l Des: 2025-087 Owner: SPXS Country: US Constellation: starlink
LEOCIRCULAR

Über Starlink 33773

Beschreibung wird geladen...

Live-Position

3D-Globus wird geladen...

Nächste Überflüge

Höhenverlauf

Altitude vs Time

uPlot chart will show altitude changes over time

Zweizeiliger Elementsatz

1 63713U 25087S 25351.40297241 .00019407 00000-0 66603-3 0 9992
2 63713 53.1577 241.5894 0001568 78.9747 281.1430 15.30182264 36601
Epoch: 17. Dez. 2025 • Age: 25 hours

Aktueller Status

Höhe 479.9 km
Geschwindigkeit 7.63 km/s
Subsatellitenpunkt 49.97°N, 45.83°E
Startdatum 28. Apr. 2025
Alter 0.6 years
Typ internet

Technische Details

Klassifizierung Payload
Masse 575.00 kg
Trockenmasse 530.00 kg
Gesamtmasse 575.00 kg
Länge 0.30 m
Durchmesser 4.10 m
Spannweite 29.00 m
Form Box + pan
Hersteller SPXS
Bus-Typ Starlink V2MO
Phasenstatus In Orbit
Besitzer/Staat SPXS/US

Große Konstellationen

Loading constellations...